DW3383 Weather Reports


Display with metric or nautical units.
time (UTC)temp
F
wind
direction
speed
MPH
gust
MPH
rain 1hr
in
rain 24hr
in
rain mn
in
humidity
%
barometer
mb
20260905190306 58 38 0.0 3.0 0.00 0.00 0.00 63 1014.1
20260905180805 52 318 1.0 2.0 0.00 0.00 0.00 74 1014.6
20260905180305 52 10 0.0 8.0 0.00 0.00 0.00 74 1014.7
20260905170804 45 264 2.0 6.0 0.00 0.00 0.00 91 1015.4
20260905170305 44 274 1.0 6.0 0.00 0.00 0.00 93 1015.4
20260905160805 40 270 5.0 7.0 0.00 0.00 0.00 99 1016.0
20260905160306 39 130 5.0 7.0 0.00 0.00 0.00 99 1016.0
20260905150805 35 239 3.0 5.0 0.00 0.00 0.00 99 1016.3
20260905150305 35 128 2.0 6.0 0.00 0.00 0.00 99 1016.3
20260905140805 35 283 5.0 5.0 0.00 0.00 0.00 98 1016.5
20260905130806 37 258 2.0 5.0 0.00 0.00 0.00 98 1016.3
20260905130305 37 280 3.0 5.0 0.00 0.00 0.00 98 1016.4
20260905120805 37 278 3.0 3.0 0.00 0.00 0.00 98 1016.7
20260905120305 37 275 3.0 5.0 0.00 0.00 0.00 98 1016.8
20260905110805 39 269 3.0 5.0 0.00 0.00 0.00 98 1017.2
20260905110305 39 272 4.0 6.0 0.00 0.00 0.00 98 1017.3
20260905100805 41 277 4.0 5.0 0.00 0.00 0.00 97 1017.1
20260905100305 41 278 5.0 7.0 0.00 0.00 0.00 98 1017.1
20260905090805 41 240 5.0 7.0 0.00 0.00 0.00 95 1017.1
20260905090304 41 219 6.0 8.0 0.00 0.00 0.00 95 1017.0
20260905080805 43 279 4.0 7.0 0.00 0.00 0.00 92 1017.1
20260905080305 43 273 6.0 7.0 0.00 0.00 0.00 92 1017.1
20260905070812 45 274 3.0 5.0 0.00 0.00 0.00 89 1016.9
20260905070304 46 265 3.0 5.0 0.00 0.00 0.00 88 1016.8
20260905060804 49 351 2.0 5.0 0.00 0.00 0.00 84 1016.7
20260905060305 49 11 2.0 5.0 0.00 0.00 0.00 83 1016.7
20260905050805 53 273 2.0 3.0 0.00 0.00 0.00 76 1016.6
20260905050304 53 274 1.0 3.0 0.00 0.00 0.00 76 1016.6
20260905040804 59 43 0.0 1.0 0.00 0.00 0.00 61 1016.3
20260905040306 60 35 0.0 2.0 0.00 0.00 0.00 63 1016.3
20260905030805 66 57 1.0 2.0 0.00 0.00 0.00 51 1016.0
20260905030304 66 46 1.0 2.0 0.00 0.00 0.00 50 1016.0
20260905020805 70 60 1.0 2.0 0.00 0.00 0.00 44 1015.9
20260905000805 72 38 2.0 3.0 0.00 0.00 0.00 40 1016.5
20260905000304 72 6 2.0 5.0 0.00 0.00 0.00 40 1016.6
20260904230805 68 51 1.0 3.0 0.00 0.00 0.00 44 1017.2
20260904230304 68 53 2.0 3.0 0.00 0.00 0.00 44 1017.3
20260904220805 65 61 1.0 2.0 0.00 0.00 0.00 43 1017.7
20260904220306 65 56 1.0 6.0 0.00 0.00 0.00 44 1017.8
20260904200805 59 88 1.0 2.0 0.00 0.00 0.00 55 1019.0